ZQ-2E DEB, 69635

Orbit data source: Space-Track

ZQ-2E DEB, 69635 is space debris in LEO originally from a launch on Tue, 09 Jun 2026 UTC launched from the Jiuquan Satellite Launch Center, China (JSC). Debris objects in space refer to the collection of defunct objects orbiting the Earth. Examples of debris include non-operational satellites, rocket bodies, and fragments generated from explosions, collisions, or faulty payload assembly.

Loading next visibility...
Identifier
69635, 2026-128K
Orbit
LEO
Country
Flag of CNCN / PRC
Related business
Flag of CNLandspace (CN)
Manufacturer
Lanjian Hangtian
Mission
Spacecraft
Bus & Motor
Unknown
Mass
Unknown
Launch date (UTC)
2026-06-09 (2 weeks ago)
Launch vehicle
Unknown
Launch site
Jiuquan Satellite Launch Center, China (JSC)
Object type
Payload
Rocket body
Debris
Shape & HBR
Unknown
Radar Cross Section
RCS unknown

Expand to show TLE details & history
Last TLE update: 1 day ago

TLE from 1 day ago
0 ZQ-2E DEB
1 69635U 26128K   26170.60827362  .00673529  15377-3  39097-2 0  9996
2 69635  54.5378 291.7539 0100032   3.4825 356.6885 15.71024543  1135
Epoch: 2026-06-19T14:35Z
TLE epoch observation values (Epoch: 2026-06-19T14:35:54.840Z)
Latitude
-0.00007°
Longitude
164.94054°
Altitude
289.785 km
Speed
7.773 km/s
True Right ascension
19h 27m 00s
True Declination
0° 00' 00"
Sunlit
Object was in full shadow at epoch
Visualization orbit readout
Latitude
Unknown
Longitude
Unknown
Altitude
Unknown
Speed
Unknown
Apparent Right ascension
Unknown
Apparent Declination
Unknown
Sunlit
N/A
Visualization observer readout
Local Sidereal Time
08:32:39
Azimuth
Unknown
Elevation
Unknown
Doppler factor
Unknown
Orbital elements
Apogee altitude
423.367 km
Perigee altitude
288.641 km
Semi-major axis
6,734.141 km
Eccentricity
0.01
Inclination
54.5378°
RAAN
291.7539°
Arg. of periapsis
3.4825°
True anomaly
356.62145°
Mean anomaly
356.6885°
Eccentric anomaly
356.65506°
Mean motion
3.92753 °/min
Orbital period
91.66 mins
BSTAR
0.0039097
Loading maneuver chart data...
Computing Atmospheric mass density...
Loading historical data...
Loading historical data...
Loading historical data...
Loading historical data...
Loading historical data...
Loading historical data...
Loading historical data...

Documentation

Showing up to 5 results
|